﻿測定場所 (Monitoring sites),日付 (Measurement date),時間 (Measurement time),線量率 最大値 (max) μGy/h,線量率 最小値 (min) μGy/h,線量率 平均値 (average) μGy/h,
新宿 (Shinjuku),2019-11-03,23:01～24:00,0.0603,0.0480,0.0554,
新宿 (Shinjuku),2019-11-03,22:01～23:00,0.0539,0.0371,0.0440,
新宿 (Shinjuku),2019-11-03,21:01～22:00,0.0441,0.0353,0.0380,
新宿 (Shinjuku),2019-11-03,20:01～21:00,0.0441,0.0369,0.0397,
新宿 (Shinjuku),2019-11-03,19:01～20:00,0.0462,0.0354,0.0406,
新宿 (Shinjuku),2019-11-03,18:01～19:00,0.0402,0.0346,0.0370,
新宿 (Shinjuku),2019-11-03,17:01～18:00,0.0397,0.0349,0.0369,
新宿 (Shinjuku),2019-11-03,16:01～17:00,0.0403,0.0350,0.0372,
新宿 (Shinjuku),2019-11-03,15:01～16:00,0.0413,0.0356,0.0371,
新宿 (Shinjuku),2019-11-03,14:01～15:00,0.0395,0.0341,0.0369,
新宿 (Shinjuku),2019-11-03,13:01～14:00,0.0406,0.0352,0.0370,
新宿 (Shinjuku),2019-11-03,12:01～13:00,0.0400,0.0352,0.0372,
新宿 (Shinjuku),2019-11-03,11:01～12:00,0.0395,0.0360,0.0373,
新宿 (Shinjuku),2019-11-03,10:01～11:00,0.0402,0.0358,0.0373,
新宿 (Shinjuku),2019-11-03,09:01～10:00,0.0405,0.0348,0.0373,
新宿 (Shinjuku),2019-11-03,08:01～09:00,0.0410,0.0346,0.0378,
新宿 (Shinjuku),2019-11-03,07:01～08:00,0.0424,0.0355,0.0376,
新宿 (Shinjuku),2019-11-03,06:01～07:00,0.0407,0.0352,0.0375,
新宿 (Shinjuku),2019-11-03,05:01～06:00,0.0422,0.0356,0.0376,
新宿 (Shinjuku),2019-11-03,04:01～05:00,0.0406,0.0350,0.0372,
新宿 (Shinjuku),2019-11-03,03:01～04:00,0.0400,0.0349,0.0372,
新宿 (Shinjuku),2019-11-03,02:01～03:00,0.0399,0.0352,0.0370,
新宿 (Shinjuku),2019-11-03,01:01～02:00,0.0398,0.0351,0.0366,
新宿 (Shinjuku),2019-11-03,00:01～01:00,0.0391,0.0342,0.0364,
新宿 (Shinjuku),2019-11-02,23:01～24:00,0.0404,0.0342,0.0368,
新宿 (Shinjuku),2019-11-02,22:01～23:00,0.0396,0.0348,0.0366,
新宿 (Shinjuku),2019-11-02,21:01～22:00,0.0408,0.0350,0.0365,
新宿 (Shinjuku),2019-11-02,20:01～21:00,0.0402,0.0343,0.0370,
新宿 (Shinjuku),2019-11-02,19:01～20:00,0.0391,0.0343,0.0363,
新宿 (Shinjuku),2019-11-02,18:01～19:00,0.0393,0.0341,0.0363,
新宿 (Shinjuku),2019-11-02,17:01～18:00,0.0399,0.0345,0.0368,
新宿 (Shinjuku),2019-11-02,16:01～17:00,0.0403,0.0340,0.0366,
新宿 (Shinjuku),2019-11-02,15:01～16:00,0.0398,0.0344,0.0363,
新宿 (Shinjuku),2019-11-02,14:01～15:00,0.0396,0.0346,0.0365,
新宿 (Shinjuku),2019-11-02,13:01～14:00,0.0411,0.0352,0.0369,
新宿 (Shinjuku),2019-11-02,12:01～13:00,0.0400,0.0341,0.0369,
新宿 (Shinjuku),2019-11-02,11:01～12:00,0.0393,0.0348,0.0365,
新宿 (Shinjuku),2019-11-02,10:01～11:00,0.0397,0.0345,0.0368,
新宿 (Shinjuku),2019-11-02,09:01～10:00,0.0407,0.0348,0.0369,
新宿 (Shinjuku),2019-11-02,08:01～09:00,0.0404,0.0338,0.0368,
新宿 (Shinjuku),2019-11-02,07:01～08:00,0.0391,0.0344,0.0364,
新宿 (Shinjuku),2019-11-02,06:01～07:00,0.0391,0.0343,0.0362,
新宿 (Shinjuku),2019-11-02,05:01～06:00,0.0398,0.0351,0.0368,
新宿 (Shinjuku),2019-11-02,04:01～05:00,0.0388,0.0331,0.0360,
新宿 (Shinjuku),2019-11-02,03:01～04:00,0.0402,0.0342,0.0364,
新宿 (Shinjuku),2019-11-02,02:01～03:00,0.0396,0.0346,0.0365,
新宿 (Shinjuku),2019-11-02,01:01～02:00,0.0424,0.0342,0.0365,
新宿 (Shinjuku),2019-11-02,00:01～01:00,0.0392,0.0338,0.0365,
新宿 (Shinjuku),2019-11-01,23:01～24:00,0.0386,0.0344,0.0363,
新宿 (Shinjuku),2019-11-01,22:01～23:00,0.0407,0.0349,0.0368,
新宿 (Shinjuku),2019-11-01,21:01～22:00,0.0393,0.0344,0.0365,
新宿 (Shinjuku),2019-11-01,20:01～21:00,0.0405,0.0339,0.0368,
新宿 (Shinjuku),2019-11-01,19:01～20:00,0.0401,0.0340,0.0369,
新宿 (Shinjuku),2019-11-01,18:01～19:00,0.0398,0.0350,0.0370,
新宿 (Shinjuku),2019-11-01,17:01～18:00,0.0406,0.0353,0.0371,
新宿 (Shinjuku),2019-11-01,16:01～17:00,0.0397,0.0344,0.0366,
新宿 (Shinjuku),2019-11-01,15:01～16:00,0.0394,0.0348,0.0368,
新宿 (Shinjuku),2019-11-01,14:01～15:00,0.0409,0.0343,0.0366,
新宿 (Shinjuku),2019-11-01,13:01～14:00,0.0406,0.0343,0.0367,
新宿 (Shinjuku),2019-11-01,12:01～13:00,0.0434,0.0355,0.0374,
新宿 (Shinjuku),2019-11-01,11:01～12:00,0.0400,0.0350,0.0370,
新宿 (Shinjuku),2019-11-01,10:01～11:00,0.0404,0.0350,0.0371,
新宿 (Shinjuku),2019-11-01,09:01～10:00,0.0410,0.0355,0.0373,
新宿 (Shinjuku),2019-11-01,08:01～09:00,0.0415,0.0353,0.0378,
新宿 (Shinjuku),2019-11-01,07:01～08:00,0.0418,0.0357,0.0381,
新宿 (Shinjuku),2019-11-01,06:01～07:00,0.0430,0.0356,0.0378,
新宿 (Shinjuku),2019-11-01,05:01～06:00,0.0412,0.0349,0.0377,
新宿 (Shinjuku),2019-11-01,04:01～05:00,0.0410,0.0359,0.0376,
新宿 (Shinjuku),2019-11-01,03:01～04:00,0.0415,0.0346,0.0376,
新宿 (Shinjuku),2019-11-01,02:01～03:00,0.0410,0.0355,0.0374,
新宿 (Shinjuku),2019-11-01,01:01～02:00,0.0400,0.0353,0.0373,
新宿 (Shinjuku),2019-11-01,00:01～01:00,0.0404,0.0349,0.0375,
新宿 (Shinjuku),2019-10-31,23:01～24:00,0.0410,0.0351,0.0371,
新宿 (Shinjuku),2019-10-31,22:01～23:00,0.0398,0.0352,0.0370,
新宿 (Shinjuku),2019-10-31,21:01～22:00,0.0411,0.0345,0.0369,
新宿 (Shinjuku),2019-10-31,20:01～21:00,0.0397,0.0347,0.0368,
新宿 (Shinjuku),2019-10-31,19:01～20:00,0.0412,0.0353,0.0368,
新宿 (Shinjuku),2019-10-31,18:01～19:00,0.0398,0.0348,0.0366,
新宿 (Shinjuku),2019-10-31,17:01～18:00,0.0405,0.0347,0.0368,
新宿 (Shinjuku),2019-10-31,16:01～17:00,0.0402,0.0340,0.0365,
新宿 (Shinjuku),2019-10-31,15:01～16:00,0.0398,0.0345,0.0368,
新宿 (Shinjuku),2019-10-31,14:01～15:00,0.0399,0.0339,0.0367,
新宿 (Shinjuku),2019-10-31,13:01～14:00,0.0396,0.0349,0.0367,
新宿 (Shinjuku),2019-10-31,12:01～13:00,0.0410,0.0347,0.0369,
新宿 (Shinjuku),2019-10-31,11:01～12:00,0.0410,0.0349,0.0371,
新宿 (Shinjuku),2019-10-31,10:01～11:00,0.0406,0.0354,0.0370,
新宿 (Shinjuku),2019-10-31,09:01～10:00,0.0407,0.0355,0.0373,
新宿 (Shinjuku),2019-10-31,08:01～09:00,0.0402,0.0348,0.0370,
新宿 (Shinjuku),2019-10-31,07:01～08:00,0.0404,0.0351,0.0374,
新宿 (Shinjuku),2019-10-31,06:01～07:00,0.0399,0.0330,0.0369,
新宿 (Shinjuku),2019-10-31,05:01～06:00,0.0412,0.0354,0.0373,
新宿 (Shinjuku),2019-10-31,04:01～05:00,0.0419,0.0349,0.0372,
新宿 (Shinjuku),2019-10-31,03:01～04:00,0.0409,0.0348,0.0370,
新宿 (Shinjuku),2019-10-31,02:01～03:00,0.0412,0.0348,0.0368,
新宿 (Shinjuku),2019-10-31,01:01～02:00,0.0413,0.0352,0.0370,
新宿 (Shinjuku),2019-10-31,00:01～01:00,0.0395,0.0345,0.0367,
新宿 (Shinjuku),2019-10-30,23:01～24:00,0.0414,0.0347,0.0366,
新宿 (Shinjuku),2019-10-30,22:01～23:00,0.0417,0.0346,0.0369,
新宿 (Shinjuku),2019-10-30,21:01～22:00,0.0412,0.0346,0.0369,
新宿 (Shinjuku),2019-10-30,20:01～21:00,0.0417,0.0353,0.0370,
新宿 (Shinjuku),2019-10-30,19:01～20:00,0.0398,0.0352,0.0369,
新宿 (Shinjuku),2019-10-30,18:01～19:00,0.0392,0.0349,0.0367,
新宿 (Shinjuku),2019-10-30,17:01～18:00,0.0389,0.0344,0.0367,
新宿 (Shinjuku),2019-10-30,16:01～17:00,0.0392,0.0340,0.0363,
新宿 (Shinjuku),2019-10-30,15:01～16:00,0.0398,0.0345,0.0368,
新宿 (Shinjuku),2019-10-30,14:01～15:00,0.0402,0.0347,0.0365,
新宿 (Shinjuku),2019-10-30,13:01～14:00,0.0402,0.0337,0.0368,
新宿 (Shinjuku),2019-10-30,12:01～13:00,0.0399,0.0339,0.0368,
新宿 (Shinjuku),2019-10-30,11:01～12:00,0.0408,0.0345,0.0369,
新宿 (Shinjuku),2019-10-30,10:01～11:00,0.0410,0.0343,0.0370,
新宿 (Shinjuku),2019-10-30,09:01～10:00,0.0398,0.0347,0.0369,
新宿 (Shinjuku),2019-10-30,08:01～09:00,0.0416,0.0352,0.0375,
新宿 (Shinjuku),2019-10-30,07:01～08:00,0.0428,0.0353,0.0374,
新宿 (Shinjuku),2019-10-30,06:01～07:00,0.0403,0.0357,0.0376,
新宿 (Shinjuku),2019-10-30,05:01～06:00,0.0399,0.0359,0.0375,
新宿 (Shinjuku),2019-10-30,04:01～05:00,0.0408,0.0352,0.0372,
新宿 (Shinjuku),2019-10-30,03:01～04:00,0.0420,0.0350,0.0372,
新宿 (Shinjuku),2019-10-30,02:01～03:00,0.0406,0.0350,0.0365,
新宿 (Shinjuku),2019-10-30,01:01～02:00,0.0392,0.0341,0.0364,
新宿 (Shinjuku),2019-10-30,00:01～01:00,0.0402,0.0346,0.0365,
新宿 (Shinjuku),2019-10-29,23:01～24:00,0.0388,0.0342,0.0364,
新宿 (Shinjuku),2019-10-29,22:01～23:00,0.0390,0.0344,0.0365,
新宿 (Shinjuku),2019-10-29,21:01～22:00,0.0395,0.0332,0.0362,
新宿 (Shinjuku),2019-10-29,20:01～21:00,0.0387,0.0338,0.0362,
新宿 (Shinjuku),2019-10-29,19:01～20:00,0.0410,0.0351,0.0366,
新宿 (Shinjuku),2019-10-29,18:01～19:00,0.0414,0.0356,0.0376,
新宿 (Shinjuku),2019-10-29,17:01～18:00,0.0425,0.0354,0.0390,
新宿 (Shinjuku),2019-10-29,16:01～17:00,0.0473,0.0373,0.0426,
新宿 (Shinjuku),2019-10-29,15:01～16:00,0.0528,0.0438,0.0486,
新宿 (Shinjuku),2019-10-29,14:01～15:00,0.0584,0.0463,0.0521,
新宿 (Shinjuku),2019-10-29,13:01～14:00,0.0604,0.0507,0.0551,
新宿 (Shinjuku),2019-10-29,12:01～13:00,0.0582,0.0514,0.0551,
新宿 (Shinjuku),2019-10-29,11:01～12:00,0.0556,0.0467,0.0519,
新宿 (Shinjuku),2019-10-29,10:01～11:00,0.0512,0.0424,0.0473,
新宿 (Shinjuku),2019-10-29,09:01～10:00,0.0508,0.0417,0.0471,
新宿 (Shinjuku),2019-10-29,08:01～09:00,0.0515,0.0398,0.0464,
新宿 (Shinjuku),2019-10-29,07:01～08:00,0.0456,0.0370,0.0407,
新宿 (Shinjuku),2019-10-29,06:01～07:00,0.0415,0.0355,0.0378,
新宿 (Shinjuku),2019-10-29,05:01～06:00,0.0403,0.0346,0.0371,
新宿 (Shinjuku),2019-10-29,04:01～05:00,0.0389,0.0349,0.0369,
新宿 (Shinjuku),2019-10-29,03:01～04:00,0.0403,0.0350,0.0368,
新宿 (Shinjuku),2019-10-29,02:01～03:00,0.0403,0.0350,0.0366,
新宿 (Shinjuku),2019-10-29,01:01～02:00,0.0403,0.0340,0.0367,
新宿 (Shinjuku),2019-10-29,00:01～01:00,0.0389,0.0340,0.0361,
新宿 (Shinjuku),2019-10-28,23:01～24:00,0.0407,0.0343,0.0362,
新宿 (Shinjuku),2019-10-28,22:01～23:00,0.0400,0.0339,0.0365,
新宿 (Shinjuku),2019-10-28,21:01～22:00,0.0407,0.0339,0.0365,
新宿 (Shinjuku),2019-10-28,20:01～21:00,0.0386,0.0347,0.0363,
新宿 (Shinjuku),2019-10-28,19:01～20:00,0.0399,0.0348,0.0366,
新宿 (Shinjuku),2019-10-28,18:01～19:00,0.0417,0.0336,0.0367,
新宿 (Shinjuku),2019-10-28,17:01～18:00,0.0385,0.0339,0.0361,
新宿 (Shinjuku),2019-10-28,16:01～17:00,0.0382,0.0342,0.0363,
新宿 (Shinjuku),2019-10-28,15:01～16:00,0.0399,0.0342,0.0367,
新宿 (Shinjuku),2019-10-28,14:01～15:00,0.0404,0.0342,0.0367,
新宿 (Shinjuku),2019-10-28,13:01～14:00,0.0397,0.0343,0.0366,
新宿 (Shinjuku),2019-10-28,12:01～13:00,0.0412,0.0349,0.0372,
新宿 (Shinjuku),2019-10-28,11:01～12:00,0.0405,0.0351,0.0369,
新宿 (Shinjuku),2019-10-28,10:01～11:00,0.0397,0.0337,0.0366,
新宿 (Shinjuku),2019-10-28,09:01～10:00,0.0394,0.0346,0.0367,
新宿 (Shinjuku),2019-10-28,08:01～09:00,0.0405,0.0353,0.0372,
新宿 (Shinjuku),2019-10-28,07:01～08:00,0.0408,0.0353,0.0371,
新宿 (Shinjuku),2019-10-28,06:01～07:00,0.0402,0.0344,0.0371,
新宿 (Shinjuku),2019-10-28,05:01～06:00,0.0401,0.0343,0.0371,
新宿 (Shinjuku),2019-10-28,04:01～05:00,0.0405,0.0350,0.0372,
新宿 (Shinjuku),2019-10-28,03:01～04:00,0.0416,0.0342,0.0369,
新宿 (Shinjuku),2019-10-28,02:01～03:00,0.0403,0.0352,0.0369,
新宿 (Shinjuku),2019-10-28,01:01～02:00,0.0400,0.0347,0.0368,
新宿 (Shinjuku),2019-10-28,00:01～01:00,0.0400,0.0348,0.0367,
